KE9LZ Weather Reports


time (UTC)temp
F
wind
direction
speed
knots
gust
knots
rain 1hr
in
rain 24hr
in
rain mn
in
humidity
%
barometer
mb
20260503231004 69 205 7.8 13.9 0.00 0.00 0.00 44 1005.5
20260503230003 68 187 8.7 15.6 0.00 0.00 0.00 43 1005.8
20260503225003 68 206 8.7 15.6 0.00 0.00 0.00 43 1005.7
20260503224004 68 212 8.7 13.9 0.00 0.00 0.00 43 1006.0
20260503223003 69 197 8.7 15.6 0.00 0.00 0.00 43 1005.7
20260503222004 69 202 9.6 14.8 0.00 0.00 0.00 43 1005.9
20260503221004 70 198 6.1 17.4 0.00 0.00 0.00 42 1005.7
20260503220003 69 205 8.7 15.6 0.00 0.00 0.00 41 1006.0
20260503215003 69 206 7.0 13.0 0.00 0.00 0.00 43 1006.1
20260503214003 68 200 7.8 15.6 0.00 0.00 0.00 44 1006.3
20260503213004 68 188 7.8 14.8 0.00 0.00 0.00 44 1006.6
20260503212004 69 186 10.4 14.8 0.00 0.00 0.00 43 1006.5
20260503211003 68 199 11.3 17.4 0.00 0.00 0.00 43 1006.6
20260503210004 69 195 7.8 14.8 0.00 0.00 0.00 43 1006.7
20260503205003 68 220 10.4 19.1 0.00 0.00 0.00 43 1006.8
20260503204004 68 217 8.7 15.6 0.00 0.00 0.00 43 1007.1
20260503203003 68 203 7.0 20.9 0.00 0.00 0.00 44 1007.3
20260503202003 68 220 11.3 18.2 0.00 0.00 0.00 44 1007.4
20260503201003 67 178 8.7 15.6 0.00 0.00 0.00 44 1007.4
20260503200002 67 196 7.8 19.1 0.00 0.00 0.00 45 1008.0
20260503195003 67 201 9.6 18.2 0.00 0.00 0.00 45 1007.9
20260503193003 66 194 13.9 22.6 0.00 0.00 0.00 46 1008.4
20260503192004 67 203 9.6 20.9 0.00 0.00 0.00 46 1008.4
20260503191003 67 198 10.4 19.1 0.00 0.00 0.00 46 1008.7
20260503190003 66 204 8.7 25.2 0.00 0.00 0.00 48 1008.7
20260503185004 65 212 11.3 20.0 0.00 0.00 0.00 48 1008.8
20260503184003 65 211 10.4 20.9 0.00 0.00 0.00 49 1009.1
20260503183003 64 216 11.3 22.6 0.00 0.00 0.00 52 1009.3
20260503181003 63 209 12.2 25.2 0.00 0.00 0.00 55 1009.6
20260503180004 63 189 7.8 17.4 0.00 0.00 0.00 55 1009.7
20260503174003 63 195 11.3 21.7 0.00 0.00 0.00 55 1010.0
20260503173003 62 203 10.4 22.6 0.00 0.00 0.00 54 1010.4
20260503172003 62 214 8.7 21.7 0.00 0.00 0.00 54 1010.3
20260503171004 62 207 11.3 21.7 0.00 0.00 0.00 54 1010.6
20260503081003 49 180 4.3 7.0 0.00 0.00 0.00 63 1014.4
20260503071004 47 171 3.5 7.0 0.00 0.00 0.00 71 1014.6
20260503055003 43 175 2.6 5.2 0.00 0.00 0.00 73 1015.8
20260503054003 42 167 1.7 4.3 0.00 0.00 0.00 74 1015.5
20260503052003 42 178 2.6 4.3 0.00 0.00 0.00 74 1016.1
20260503051004 42 142 2.6 4.3 0.00 0.00 0.00 74 1015.8
20260503045003 41 136 2.6 4.3 0.00 0.00 0.00 73 1015.9
20260503044004 41 153 2.6 4.3 0.00 0.00 0.00 73 1016.1
20260503043003 42 130 2.6 4.3 0.00 0.00 0.00 72 1016.0
20260503042004 42 133 2.6 6.1 0.00 0.00 0.00 71 1016.3
20260503041004 42 159 2.6 6.1 0.00 0.00 0.00 70 1016.6
20260503040003 42 154 3.5 6.1 0.00 0.00 0.00 69 1016.7
20260503035004 43 164 3.5 5.2 0.00 0.00 0.00 68 1016.5
20260503034004 42 144 2.6 5.2 0.00 0.00 0.00 68 1016.8
20260503033003 43 120 3.5 6.1 0.00 0.00 0.00 68 1016.9
20260503032003 43 164 4.3 6.1 0.00 0.00 0.00 67 1016.9
20260503031004 43 169 3.5 7.8 0.00 0.00 0.00 66 1017.0
20260503030003 43 149 4.3 6.1 0.00 0.00 0.00 65 1017.1
20260503025004 43 135 2.6 7.0 0.00 0.00 0.00 64 1017.3
20260503024003 44 142 4.3 6.1 0.00 0.00 0.00 63 1017.3
20260503023004 44 138 2.6 6.1 0.00 0.00 0.00 63 1017.5
20260503022004 44 143 4.3 7.8 0.00 0.00 0.00 62 1017.3
20260503021003 44 133 4.3 10.4 0.00 0.00 0.00 61 1017.6
20260503015003 45 139 5.2 8.7 0.00 0.00 0.00 59 1017.3
20260503014003 45 140 4.3 8.7 0.00 0.00 0.00 59 1017.4
20260503013004 46 140 4.3 12.2 0.00 0.00 0.00 58 1017.6
20260503012004 46 144 7.0 13.9 0.00 0.00 0.00 57 1017.5
20260503010003 47 146 7.0 8.7 0.00 0.00 0.00 57 1017.7
20260503005003 48 138 7.0 15.6 0.00 0.00 0.00 55 1017.4
20260503004003 49 140 6.1 11.3 0.00 0.00 0.00 54 1017.6
20260503003004 49 154 6.1 10.4 0.00 0.00 0.00 53 1017.6
20260503001003 51 137 7.8 13.0 0.00 0.00 0.00 52 1017.6
20260503000003 51 141 5.2 15.6 0.00 0.00 0.00 52 1017.4
20260502235003 52 140 6.1 14.8 0.00 0.00 0.00 50 1017.9
20260502234004 53 138 8.7 17.4 0.00 0.00 0.00 48 1017.7